Volver al catálogo

SL-14 DEB

LostPO
NORAD 25832·DEBRIS·🇷🇺 Russia

Lanzado Oct 26, 1978 desde Plesetsk Cosmodrome

Loading…

Próximos Pases (próximas 24 horas)

TLE

ObsoletoSource: Space-Track

Época: Nov 8, 2025, 07:07 UTC

1 25832U 78100AU  25312.29665590  .00000052  00000-0  55054-3 0  9990
2 25832  82.5465 153.2016 0010838  12.2112 165.5206 11.97589059210180

Sigue SL-14 DEB en tiempo real con AllMySat

Download on the App Store